Skip Page Navigation
NASA JPL Caltech
NASA Logo - Jet Propulsion Laboratory + View the NASA Portal
+ Center for Near-Earth Object Studies
JPL Home Earth Solar System Stars & Galaxies Technology
JPL Solar System Dynamics
BODIES ORBITS EPHEMERIDES TOOLS PHYSICAL DATA DISCOVERY FAQ SITE MAP
IMPORTANT: The SSD Announcement email list is now available. Major changes are coming in the near future, including possible hostname and/or URL changes. To be notified of such changes, subscribe to this email list.

Please visit this page for more details.


JPL Small-Body Database Browser
Search: [ help ]  
295303 (2008 GB115)
Classification: Main-belt Asteroid          SPK-ID: 2295303
Ephemeris | Orbit Diagram | Orbital Elements | Mission Design | Physical Parameters | Discovery Circumstances | Close-Approach Data ]

[ show orbit diagram ]
Orbital Elements at Epoch 2459000.5 (2020-May-31.0) TDB
Reference: JPL 11 (heliocentric ecliptic J2000)
 Element Value Uncertainty (1-sigma)   Units 
e .02814378014226538 5.293e-08  
a 3.153040688456682 4.3022e-08 au
q 3.06430220454114 1.6667e-07 au
i 6.094078037838261 6.0254e-06 deg
node 115.4557507899477 5.6971e-05 deg
peri 336.4927350927915 0.00012543 deg
M 176.070577101615 0.00011148 deg
tp 2458000.322508986399
(2017-Sep-03.82250899)
0.0006341 TDB
period 2044.997538442178
5.60
4.1855e-05
1.146e-07
d
yr
n .1760393317021976 3.603e-09 deg/d
Q 3.241779172372224 4.4233e-08 au
  Orbit Determination Parameters
   # obs. used (total)      227  
   data-arc span      6703 days (18.35 yr)  
   first obs. used      2000-12-30  
   last obs. used      2019-05-08  
   planetary ephem.      DE431  
   SB-pert. ephem.      SB431-N16  
   condition code      0  
   norm. resid. RMS      .57646  
   source      ORB  
   producer      Otto Matic  
   solution date      2020-Feb-25 16:39:04  

Additional Information
 Earth MOID = 2.0822 au 
 Jupiter MOID = 1.82009 au 
 T_jup = 3.198 
[ show covariance matrix ]

Ephemeris | Orbit Diagram | Orbital Elements | Mission Design | Physical Parameters | Discovery Circumstances | Close-Approach Data ]

Physical Parameter Table
Parameter Symbol Value Units Sigma Reference Notes
absolute magnitude H 15.6   n/a MPO437320  

295303 (2008 GB115)          Discovered 2008-Apr-11 by Spacewatch at Kitt Peak
Reference: 20110912/Numbers.arcLast Updated: 2011-09-14

[ show close-approach data ]
Alternate Designations
 2008 GB115 = 2006 UA326 
Ephemeris | Orbit Diagram | Orbital Elements | Mission Design | Physical Parameters | Discovery Circumstances | Close-Approach Data ]
ABOUT SSD CREDITS/AWARDS PRIVACY/COPYRIGHT GLOSSARY LINKS
FirstGov 2020-Jun-05 23:34 UT
(server date/time)  
NASA Home Page
Site Manager:   Ryan S. Park
Webmaster  Alan B. Chamberlin